星链-30138 (STARLINK-30138 )
导读
STARLINK-30138是美国太空探索技术公司SpaceX星链(Starlink)项目中的一颗卫星,于2023年8月11日发射升空,隶属于美国太空探索技术公司部署的大规模卫星互联网星座,旨在为全球用户提供低延迟、高速率的宽带互联网接入服务,是星链星座扩容过程中的组成单元之一。
Basic Information
目录编号:
57605
目录名称:
STARLINK-30138
国际标识:
2023-119D
轨道中心:
EARTH
卫星名称:
星链-30138
卫星全名:
星链-30138 (STARLINK-30138 )
卫星状态:
在轨 (已飞行1127 天)
发射日期:
2023-08-11 UTC
国别 :
美国
(US)
星等 :
--
This satellite is enrolled in the Space Conjunction Data Service (SCDS) and the current flight risk assessment level is: High Risk
Orbit Information
| 数据来源 | 国际轨道数据 |
| 星历时间: | 2026-09-11T09:14:58+0800 13小时前 查看轨道信息 |
| 半长轴: | 6861.229km |
| 偏心率: | 0.0001504 |
| 轨道倾角: | 43.002° |
| 近地点辐角 | 254.917° |
| 升交点赤经 | 114.884° |
| 平近点角 | 105.152° |
| 近地点: | 482.06km |
| 远地点: | 484.124km |
| 周期: | 94.268分钟 |
| 每日圈数: | 15.275658 |
Detailed Information
固有亮度:
5
最大亮度:
0.3
卫星平台:
Starlink v2.0 mini
覆盖范围:
全球
运营商:
太空探索技术公司
运营商所在国:
美国
制造商(研发单位):
太空探索技术公司
制造商所在国:
美国
使用方式:
暂无
Satellite Introduction
星链(Starlink)计划是由太空探索技术公司(SpaceX)提出的一个巨型低轨卫星互联网星座项目,计划在2019年至2024年间在太空搭建由约1.2万颗卫星组成的“星链”网络,其中1584颗将部署在地球上空550千米处的近地轨道,并从2020年开始工作。该卫星仍在工作。
2D Orbit Map
3D Orbit Map
Orbit Altitude Analysis Chart
Orbit Inclination Analysis Chart
Orbit Comprehensive Analysis Chart
View Comprehensive ChartConjunction Data List
| Event ID | Objects | TCA | Miss Dist (km) | Collision Risk Probability | Collision Risk Index (CRI) | Action |
|---|---|---|---|---|---|---|
| CDM_260913-165405-760506-647721 |
STARLINK-30138
(57605)
STARLINK-35354
(66477) | 2026-09-13T 16:54:15+0000 |
0.148 km
中距离 | 9.01007E-4 高风险 | 0.94 | |
| CDM_260910-184505-760506-438321 |
STARLINK-30138
(57605)
STARLINK-34299
(64383) | 2026-09-10T 18:45:19+0000 |
0.184 km
中距离 | 7.055057E-4 高风险 | 0.92 | |
| CDM_260913-111305-760505-782421 |
STARLINK-30138
(57605)
STARLINK-30408
(57824) | 2026-09-13T 11:13:52+0000 |
0.411 km
远距离 | 2.507375E-4 高风险 | 0.83 | |
| CDM_260912-043705-760505-782421 |
STARLINK-30138
(57605)
STARLINK-30408
(57824) | 2026-09-12T 04:37:47+0000 |
0.725 km
远距离 | 5.959653E-5 中风险 | 0.71 | |
| CDM_260912-125405-760506-661321 |
STARLINK-30138
(57605)
STARLINK-36037
(66613) | 2026-09-12T 12:54:32+0000 |
0.555 km
远距离 | 5.140893E-5 中风险 | 0.69 | |
| CDM_260913-124805-760505-782421 |
STARLINK-30138
(57605)
STARLINK-30408
(57824) | 2026-09-13T 12:48:02+0000 |
1.036 km
极远距离 | 1.834063E-5 中风险 | 0.6 | |
| CDM_260912-061105-760505-782421 |
STARLINK-30138
(57605)
STARLINK-30408
(57824) | 2026-09-12T 06:11:56+0000 |
1.118 km
极远距离 | 1.4084E-5 中风险 | 0.58 | |
| CDM_260911-101105-760506-409522 |
STARLINK-30138
(57605)
COSMOS 2588
(64095) | 2026-09-11T 10:11:32+0000 |
1.128 km
极远距离 | 1.370049E-5 中风险 | 0.58 | |
| CDM_260913-033305-760506-647721 |
STARLINK-30138
(57605)
STARLINK-35354
(66477) | 2026-09-13T 03:33:56+0000 |
1.141 km
极远距离 | 1.295948E-5 中风险 | 0.57 | |
| CDM_260912-030305-760505-782421 |
STARLINK-30138
(57605)
STARLINK-30408
(57824) | 2026-09-12T 03:03:37+0000 |
1.741 km
极远距离 | 3.272958E-6 低风险 | 0.45 |
Miss Distance Evolution Trend with All Objects
Collision Probability Evolution Trend with All Objects

